Location: Bad Salzschlirf
(50.3750°N, 9.3000°E)
Time: 05:39:36
(UTC+01:00)

ISS - Pass Details

Date: 20 January 2021
Orbit: 418 x 421 km, 51.6° (Epoch: 23 January)

Event Time Altitude Azimuth Distance (km) Brightness Sun altitude
Rises 18:39:31 0° 212° (SSW) 2,359 0.7 -16.1°
Reaches altitude 10° 18:41:53 10° 197° (SSW) 1,499 -0.6 -16.5°
Maximum altitude 18:44:35 23° 144° (SE) 956 -2.2 -16.9°
Enters shadow 18:44:39 23° 142° (SE) 957 -2.2 -16.9°
